Sioux Falls, SD

12:02 PM CDT on May 24, 2017 (GMT -0500)
Foss

Weather History for KFSD - September, 2013

Change the Weather History Date:

Saturday, September 21, 2013

  Actual Average Record
Temperature  
Mean Temperature 55 °F 59 °F  
Max Temperature 75 °F 71 °F 93 °F (1937)
Min Temperature 35 °F 47 °F 25 °F (1913)
Degree Days  
Heating Degree Days 10 7  
Month to date heating degree days 54 90  
Since 1 July heating degree days 88 121  
Cooling Degree Days 0 1  
Month to date cooling degree days 106 54  
Year to date cooling degree days 760 679  
Growing Degree Days 6 (Base 50)    
Moisture  
Dew Point 42 °F    
Average Humidity 66    
Maximum Humidity 100    
Minimum Humidity 31    
Precipitation  
Precipitation 0.00 in 0.10 in 1.70 in (1959)
Month to date precipitation 0.29 1.98  
Year to date precipitation 20.71 21.37  
Snow  
Snow 0.00 in 0.00 in 0.00 in ()
Month to date snowfall 0.0 0.0  
Since 1 July snowfall 0.0 0.0  
Since 1 September snowfall 0.0 0.0  
Snow Depth 0.00 in    
Sea Level Pressure  
Sea Level Pressure 29.95 in    
Wind  
Wind Speed 5 mph (SE)    
Max Wind Speed 15 mph    
Max Gust Speed 18 mph    
Visibility 10 miles    
Events      
T = Trace of Precipitation, MM = Missing Value Source: NWS Daily Summary

Daily Weather History Graph

Daily Weather History Graph

Search for Another Location

Airport or City:

Trip Planner

Search our weather history database for the weather conditions in past years. The results will help you decide how hot, cold, wet, or windy it might be!

Date:

Astronomy

Sep. 21, 2013 Rise Set
Actual Time 7:13 AM CDT 7:25 PM CDT
Civil Twilight 6:44 AM CDT 7:54 PM CDT
Nautical Twilight 6:11 AM CDT 8:27 PM CDT
Astronomical Twilight 5:36 AM CDT 9:02 PM CDT
Moon 8:30 PM CDT (9/21) 9:38 AM CDT (9/21)
Length of Visible Light 13h 09m
Length of Day
12h 12m
Waning Gibbous, 94% of the Moon is Illuminated
Sep 21
Waning Gibbous
Sep 26
Last Quarter
Oct 4
New
Oct 11
First Quarter
Oct 18
Full

Hourly Weather History & Observations

Time (CDT) Temp. Dew Point Humidity Pressure Visibility Wind Dir Wind Speed Gust Speed Precip Events Conditions
12:56 AM 42.1 °F 39.0 °F 89% 30.02 in 10.0 mi Calm Calm - N/A   Clear
1:56 AM 39.9 °F 37.9 °F 93% 30.02 in 10.0 mi Calm Calm - N/A   Clear
2:56 AM 41.0 °F 39.0 °F 93% 30.02 in 10.0 mi Calm Calm - N/A   Clear
3:56 AM 39.0 °F 37.0 °F 93% 30.01 in 10.0 mi Calm Calm - N/A   Clear
4:56 AM 37.9 °F 37.0 °F 97% 30.01 in 10.0 mi Calm Calm - N/A   Clear
5:56 AM 37.0 °F 36.0 °F 96% 30.01 in 10.0 mi Calm Calm - N/A   Clear
6:56 AM 37.0 °F 36.0 °F 96% 30.02 in 10.0 mi Calm Calm - N/A   Clear
7:56 AM 37.9 °F 37.9 °F 100% 30.04 in 10.0 mi Calm Calm - N/A   Clear
8:56 AM 46.4 °F 42.8 °F 87% 30.03 in 10.0 mi Calm Calm - N/A   Partly Cloudy
9:56 AM 54.0 °F 43.0 °F 66% 30.04 in 10.0 mi East 3.5 mph - N/A   Clear
10:56 AM 60.1 °F 43.0 °F 53% 30.01 in 10.0 mi ESE 3.5 mph - N/A   Clear
11:56 AM 64.9 °F 41.0 °F 42% 30.00 in 10.0 mi SE 3.5 mph - N/A   Clear
12:56 PM 69.8 °F 41.0 °F 35% 29.97 in 10.0 mi ESE 5.8 mph - N/A   Partly Cloudy
1:56 PM 71.6 °F 41.0 °F 33% 29.94 in 10.0 mi SSE 5.8 mph - N/A   Partly Cloudy
2:56 PM 73.0 °F 41.0 °F 31% 29.91 in 10.0 mi ESE 4.6 mph - N/A   Clear
3:56 PM 73.9 °F 42.1 °F 32% 29.88 in 10.0 mi SE 8.1 mph - N/A   Clear
4:56 PM 75.0 °F 43.0 °F 32% 29.87 in 10.0 mi SE 10.4 mph - N/A   Clear
5:56 PM 73.0 °F 44.1 °F 35% 29.86 in 10.0 mi SSE 11.5 mph - N/A   Clear
6:56 PM 70.0 °F 46.0 °F 42% 29.86 in 10.0 mi SSE 10.4 mph - N/A   Clear
7:56 PM 66.9 °F 46.0 °F 47% 29.85 in 10.0 mi SE 9.2 mph - N/A   Clear
8:56 PM 66.0 °F 46.9 °F 50% 29.86 in 10.0 mi SE 9.2 mph - N/A   Clear
9:56 PM 63.0 °F 48.0 °F 58% 29.85 in 10.0 mi SE 8.1 mph - N/A   Clear
10:56 PM 59.0 °F 48.0 °F 67% 29.85 in 10.0 mi ESE 6.9 mph - N/A   Clear
11:56 PM 60.1 °F 48.0 °F 64% 29.84 in 10.0 mi SE 10.4 mph - N/A   Clear